Location: Artiguedieu
(43.5000°N, 0.5454°E)
Time: 04:45:24
(UTC+00:00)

Explorer 7 - All Passes

Search period start: 01 August 2021 00:00
Search period end: 11 August 2021 00:00
Orbit: 484 x 676 km, 50.3° (Epoch: 31 July)

Date Brightness Start Highest point End Pass type
(mag) Time Alt. Az. Time Alt. Az. Time Alt. Az.
01 Aug - 03:36:36 10° S 03:38:54 16° SE 03:41:15 10° E visible
01 Aug - 05:15:02 10° WSW 05:18:50 90° SSE 05:22:49 10° ENE daylight
01 Aug - 06:56:04 10° WNW 06:59:38 34° N 07:03:25 10° ENE daylight
01 Aug - 08:37:05 10° NW 08:40:50 35° NNE 08:44:48 10° ENE daylight
01 Aug - 10:17:26 10° WNW 10:21:39 90° WSW 10:26:09 10° ESE daylight
01 Aug - 11:58:39 10° W 12:01:48 20° SW 12:05:04 10° S daylight
02 Aug - 03:39:53 10° SSW 03:43:00 25° SE 03:46:12 10° E visible
02 Aug - 05:19:25 10° WSW 05:23:11 63° NNW 05:27:08 10° ENE daylight
02 Aug - 07:00:38 10° WNW 07:04:10 31° N 07:07:51 10° ENE daylight
02 Aug - 08:41:26 10° NW 08:45:18 41° NNE 08:49:24 10° E daylight
02 Aug - 10:21:48 10° WNW 10:25:57 62° SW 10:30:22 10° SE daylight
02 Aug - 12:04:08 10° WSW 12:05:53 12° SW 12:07:40 10° SSW daylight
03 Aug - 03:43:38 10° SSW 03:47:10 40° SE 03:50:48 10° ENE visible
03 Aug - 05:23:54 10° W 05:27:35 46° NNW 05:31:26 10° NE daylight
03 Aug - 07:05:09 10° WNW 07:08:40 30° N 07:12:22 10° ENE daylight
03 Aug - 08:45:45 10° NW 08:49:43 52° NNE 08:53:57 10° E daylight
03 Aug - 10:26:14 10° WNW 10:30:12 40° SW 10:34:22 10° SSE daylight
04 Aug - 02:11:14 10° SE 02:11:38 10° SE 02:12:02 10° ESE visible
04 Aug - 03:47:40 10° SW 03:51:23 65° SSE 03:55:13 10° ENE visible
04 Aug - 05:28:27 10° W 05:32:02 37° NNW 05:35:46 10° NE daylight
04 Aug - 07:09:37 10° WNW 07:13:10 31° N 07:16:54 10° ENE daylight
04 Aug - 08:50:02 10° WNW 08:54:06 70° NNE 08:58:25 10° ESE daylight
04 Aug - 10:30:50 10° W 10:34:22 26° SW 10:38:05 10° SSE daylight
05 Aug - 02:13:11 10° S 02:15:41 17° SE 02:18:13 10° E visible
05 Aug - 03:51:55 10° WSW 03:55:41 83° NNW 03:59:34 10° ENE visible
05 Aug - 05:33:02 10° WNW 05:36:31 32° N 05:40:08 10° ENE daylight
05 Aug - 07:14:00 10° NW 07:17:40 35° NNE 07:21:30 10° E daylight
05 Aug - 08:54:21 10° WNW 08:58:25 83° SSW 09:02:46 10° SE daylight
05 Aug - 10:35:45 10° W 10:38:30 17° SW 10:41:20 10° S daylight
06 Aug - 02:16:35 10° SSW 02:19:48 28° SE 02:23:04 10° ENE visible
06 Aug - 03:56:20 10° WSW 04:00:02 57° NNW 04:03:52 10° ENE visible
06 Aug - 05:37:36 10° WNW 05:41:01 30° N 05:44:34 10° ENE daylight
06 Aug - 07:18:20 10° NW 07:22:07 42° NNE 07:26:06 10° E daylight
06 Aug - 08:58:43 10° WNW 09:02:42 55° SW 09:06:56 10° SE daylight
06 Aug - 10:42:19 10° SW 10:42:34 10° SW 10:42:49 10° SW daylight
07 Aug - 02:20:25 10° SW 02:23:59 45° SE 02:27:37 10° ENE visible
07 Aug - 04:00:51 10° W 04:04:26 43° NNW 04:08:10 10° NE visible
07 Aug - 05:42:06 10° WNW 05:45:31 29° N 05:49:05 10° ENE daylight
07 Aug - 07:22:38 10° NW 07:26:31 54° NNE 07:30:38 10° ESE daylight
07 Aug - 09:03:11 10° WNW 09:06:55 35° SW 09:10:52 10° SSE daylight
08 Aug - 00:47:03 10° SSE 00:48:24 12° SE 00:49:44 10° ESE visible
08 Aug - 02:24:30 10° SW 02:28:14 72° SSE 02:32:01 10° ENE visible
08 Aug - 04:05:25 10° W 04:08:53 35° NNW 04:12:29 10° NE visible
08 Aug - 05:46:33 10° NW 05:50:01 31° N 05:53:39 10° ENE daylight
08 Aug - 07:26:56 10° WNW 07:30:53 75° NNE 07:35:05 10° ESE daylight
08 Aug - 09:07:50 10° W 09:11:05 23° SW 09:14:29 10° S daylight
09 Aug - 00:49:44 10° S 00:52:28 19° SE 00:55:12 10° E visible
09 Aug - 02:28:48 10° WSW 02:32:32 75° NNW 02:36:20 10° ENE visible
09 Aug - 04:09:59 10° WNW 04:13:23 30° N 04:16:52 10° ENE visible
09 Aug - 05:50:56 10° NW 05:54:30 35° NNE 05:58:14 10° E daylight
09 Aug - 07:31:15 10° WNW 07:35:12 75° SSW 07:39:23 10° SE daylight
09 Aug - 09:12:58 10° W 09:15:12 14° SW 09:17:30 10° SSW daylight
10 Aug - 00:53:15 10° SSW 00:56:36 31° SE 00:59:57 10° ENE visible
10 Aug - 02:33:13 10° W 02:36:54 53° NNW 02:40:37 10° NE visible
10 Aug - 04:14:32 10° WNW 04:17:53 29° N 04:21:19 10° ENE visible
10 Aug - 05:55:14 10° NW 05:58:56 43° NNE 06:02:49 10° E daylight
10 Aug - 07:35:38 10° WNW 07:39:27 48° SW 07:43:29 10° SE daylight
